,,PA_Meas_PMT16A,,PR_Meas_QMR101_102,,RH_Meas_QMH101,,SR_Meas_QMS101,,TA_Meas_QMH101,,GenWind,,GenWind,
time,status,PA,status,PR,status,RH,status,SR,status,TA,status,DirAvg,status,SpdAvg,
2014-11-18, 00:00:05,VALID,917.949,VALID,0,VALID,97.7627,VALID,0,VALID,19.8393,VALID,171,VALID,0,
2014-11-18, 00:01:05,VALID,917.941,VALID,0,VALID,97.7703,VALID,0,VALID,19.8603,VALID,171,VALID,0,
2014-11-18, 00:02:05,VALID,917.952,VALID,0,VALID,97.7703,VALID,0,VALID,19.8603,VALID,171,VALID,0,
2014-11-18, 00:03:05,VALID,917.911,VALID,0,VALID,97.7779,VALID,0,VALID,19.8588,VALID,171,VALID,0,
2014-11-18, 00:04:05,VALID,917.916,VALID,0,VALID,97.7856,VALID,0,VALID,19.8993,VALID,171,VALID,0,
2014-11-18, 00:05:05,VALID,917.888,VALID,0.2,VALID,97.7932,VALID,0,VALID,19.8783,VALID,171,VALID,0,
2014-11-18, 00:06:05,VALID,917.885,VALID,0,VALID,97.7856,VALID,0,VALID,19.8798,VALID,171,VALID,0,
2014-11-18, 00:07:05,VALID,917.874,VALID,0,VALID,97.8084,VALID,0,VALID,19.8603,VALID,171,VALID,0,
2014-11-18, 00:08:05,VALID,917.834,VALID,0,VALID,97.816,VALID,0,VALID,19.8408,VALID,171,VALID,0,
2014-11-18, 00:09:05,VALID,917.863,VALID,0,VALID,97.816,VALID,0,VALID,19.8213,VALID,171,VALID,0,
2014-11-18, 00:10:05,VALID,917.844,VALID,0,VALID,97.816,VALID,0,VALID,19.8018,VALID,171,VALID,0,
2014-11-18, 00:11:04,VALID,917.842,VALID,0,VALID,97.8084,VALID,0,VALID,19.7823,VALID,171,VALID,0,
2014-11-18, 00:12:04,VALID,917.817,VALID,0,VALID,97.8084,VALID,0,VALID,19.7808,VALID,171,VALID,0,
2014-11-18, 00:13:04,VALID,917.815,VALID,0,VALID,97.816,VALID,0,VALID,19.7613,VALID,171,VALID,0,
2014-11-18, 00:14:04,VALID,917.812,VALID,0,VALID,97.816,VALID,0,VALID,19.7613,VALID,170,VALID,0,
2014-11-18, 00:15:04,VALID,917.836,VALID,0,VALID,97.816,VALID,0,VALID,19.8018,VALID,171,VALID,0,
2014-11-18, 00:16:04,VALID,917.805,VALID,0,VALID,97.8313,VALID,0,VALID,19.8213,VALID,171,VALID,0,
2014-11-18, 00:17:04,VALID,917.799,VALID,0,VALID,97.8237,VALID,0,VALID,19.8393,VALID,171,VALID,0,
2014-11-18, 00:18:04,VALID,917.786,VALID,0,VALID,97.8313,VALID,0,VALID,19.8798,VALID,171,VALID,0,
2014-11-18, 00:19:04,VALID,917.764,VALID,0,VALID,97.8389,VALID,0,VALID,19.8393,VALID,170,VALID,0,
2014-11-18, 00:20:04,VALID,917.773,VALID,0,VALID,97.8389,VALID,0,VALID,19.8603,VALID,171,VALID,0,
2014-11-18, 00:21:04,VALID,917.729,VALID,0,VALID,97.8389,VALID,0,VALID,19.8003,VALID,171,VALID,0,
2014-11-18, 00:22:04,VALID,917.725,VALID,0,VALID,97.8542,VALID,0,VALID,19.8003,VALID,171,VALID,0,
2014-11-18, 00:23:04,VALID,917.736,VALID,0,VALID,97.8542,VALID,0,VALID,19.8018,VALID,171,VALID,0,
2014-11-18, 00:24:04,VALID,917.722,VALID,0,VALID,97.8542,VALID,0,VALID,19.8213,VALID,170,VALID,0,
2014-11-18, 00:25:04,VALID,917.719,VALID,0,VALID,97.8542,VALID,0,VALID,19.7598,VALID,171,VALID,0,
2014-11-18, 00:26:04,VALID,917.7,VALID,0,VALID,97.8694,VALID,0,VALID,19.7613,VALID,170,VALID,0,
2014-11-18, 00:27:04,VALID,917.675,VALID,0,VALID,97.8542,VALID,0,VALID,19.7823,VALID,148,VALID,0,
2014-11-18, 00:28:04,VALID,917.669,VALID,0,VALID,97.8694,VALID,0,VALID,19.7613,VALID,139,VALID,0,
2014-11-18, 00:29:04,VALID,917.634,VALID,0,VALID,97.8542,VALID,0,VALID,19.7823,VALID,139,VALID,0,
2014-11-18, 00:30:04,VALID,917.619,VALID,0,VALID,97.8542,VALID,0,VALID,19.7808,VALID,139,VALID,0,
2014-11-18, 00:31:04,VALID,917.591,VALID,0,VALID,97.8618,VALID,0,VALID,19.8018,VALID,137,VALID,0,
2014-11-18, 00:32:04,VALID,917.622,VALID,0,VALID,97.8618,VALID,0,VALID,19.7808,VALID,137,VALID,0,
2014-11-18, 00:33:04,VALID,917.573,VALID,0,VALID,97.8618,VALID,0,VALID,19.8003,VALID,137,VALID,0,
2014-11-18, 00:34:04,VALID,917.577,VALID,0,VALID,97.8694,VALID,0,VALID,19.7808,VALID,137,VALID,0,
2014-11-18, 00:35:04,VALID,917.553,VALID,0,VALID,97.8694,VALID,0,VALID,19.8003,VALID,137,VALID,0,
2014-11-18, 00:36:04,VALID,917.565,VALID,0.2,VALID,97.8618,VALID,0,VALID,19.8408,VALID,137,VALID,0,
2014-11-18, 00:37:04,VALID,917.525,VALID,0,VALID,97.877,VALID,0,VALID,19.8408,VALID,134,VALID,0,
2014-11-18, 00:38:04,VALID,917.525,VALID,0,VALID,97.8694,VALID,0,VALID,19.8003,VALID,140,VALID,0,
2014-11-18, 00:39:04,VALID,917.495,VALID,0,VALID,97.8847,VALID,0,VALID,19.8213,VALID,140,VALID,0,
2014-11-18, 00:40:04,VALID,917.458,VALID,0,VALID,97.877,VALID,0,VALID,19.8018,VALID,144,VALID,0,
2014-11-18, 00:41:04,VALID,917.423,VALID,0,VALID,97.8618,VALID,0,VALID,19.8018,VALID,147,VALID,0,
2014-11-18, 00:42:04,VALID,917.439,VALID,0,VALID,97.8847,VALID,0,VALID,19.7808,VALID,156,VALID,0,
2014-11-18, 00:43:04,VALID,917.406,VALID,0,VALID,97.877,VALID,0,VALID,19.8198,VALID,147,VALID,0.876172,
2014-11-18, 00:44:04,VALID,917.386,VALID,0,VALID,97.8694,VALID,0,VALID,19.8213,VALID,149,VALID,0.0804688,
2014-11-18, 00:45:04,VALID,917.401,VALID,0,VALID,97.8618,VALID,0,VALID,19.8003,VALID,138,VALID,0.63125,
2014-11-18, 00:46:04,VALID,917.37,VALID,0,VALID,97.877,VALID,0,VALID,19.8018,VALID,123,VALID,0.960547,
2014-11-18, 00:47:04,VALID,917.373,VALID,0,VALID,97.8923,VALID,0,VALID,19.8018,VALID,123,VALID,0.292969,
2014-11-18, 00:48:04,VALID,917.348,VALID,0,VALID,97.8999,VALID,0,VALID,19.7823,VALID,137,VALID,1.0375,
2014-11-18, 00:49:04,VALID,917.336,VALID,0,VALID,97.8999,VALID,0,VALID,19.7823,VALID,116,VALID,1.25508,
2014-11-18, 00:50:04,VALID,917.346,VALID,0,VALID,97.877,VALID,0,VALID,19.7823,VALID,136,VALID,0.519141,
2014-11-18, 00:51:04,VALID,917.303,VALID,0,VALID,97.8847,VALID,0,VALID,19.7613,VALID,136,VALID,0.763281,
2014-11-18, 00:52:04,VALID,917.286,VALID,0,VALID,97.8847,VALID,0,VALID,19.7613,VALID,135,VALID,0.954297,
2014-11-18, 00:53:04,VALID,917.248,VALID,0,VALID,97.8847,VALID,0,VALID,19.7808,VALID,141,VALID,0.950781,
2014-11-18, 00:54:04,VALID,917.283,VALID,0,VALID,97.9152,VALID,0,VALID,19.7418,VALID,149,VALID,0.811328,
2014-11-18, 00:55:04,VALID,917.24,VALID,0,VALID,97.8999,VALID,0,VALID,19.7628,VALID,149,VALID,0.895703,
2014-11-18, 00:56:04,VALID,917.235,VALID,0,VALID,97.9075,VALID,0,VALID,19.7823,VALID,149,VALID,0.744141,
2014-11-18, 00:57:04,VALID,917.2,VALID,0,VALID,97.9152,VALID,0,VALID,19.7628,VALID,143,VALID,1.09844,
2014-11-18, 00:58:04,VALID,917.18,VALID,0,VALID,97.9075,VALID,0,VALID,19.7823,VALID,138,VALID,0.760547,
2014-11-18, 00:59:04,VALID,917.172,VALID,0,VALID,97.9228,VALID,0,VALID,19.7628,VALID,137,VALID,0.814062,
2014-11-18, 01:00:04,VALID,917.187,VALID,0,VALID,97.8999,VALID,0,VALID,19.7628,VALID,141,VALID,0.955078,
2014-11-18, 01:01:04,VALID,917.184,VALID,0,VALID,97.8999,VALID,0,VALID,19.7823,VALID,144,VALID,0.196484,
2014-11-18, 01:02:04,VALID,917.134,VALID,0,VALID,97.9075,VALID,0,VALID,19.7823,VALID,146,VALID,1.06758,
2014-11-18, 01:03:04,VALID,917.169,VALID,0,VALID,97.9152,VALID,0,VALID,19.8018,VALID,155,VALID,0.628125,
2014-11-18, 01:04:04,VALID,917.145,VALID,0,VALID,97.8999,VALID,0,VALID,19.8018,VALID,155,VALID,0.502734,
2014-11-18, 01:05:04,VALID,917.159,VALID,0,VALID,97.9228,VALID,0,VALID,19.8018,VALID,148,VALID,0,
2014-11-18, 01:06:04,VALID,917.138,VALID,0,VALID,97.8999,VALID,0,VALID,19.8213,VALID,148,VALID,0,
2014-11-18, 01:07:04,VALID,917.137,VALID,0,VALID,97.9228,VALID,0,VALID,19.8018,VALID,148,VALID,0,
2014-11-18, 01:08:04,VALID,917.145,VALID,0,VALID,97.9075,VALID,0,VALID,19.8018,VALID,148,VALID,0,
2014-11-18, 01:09:04,VALID,917.134,VALID,0,VALID,97.9304,VALID,0,VALID,19.7823,VALID,147,VALID,0,
2014-11-18, 01:10:04,VALID,917.11,VALID,0,VALID,97.9152,VALID,0,VALID,19.8018,VALID,146,VALID,0,
2014-11-18, 01:11:04,VALID,917.105,VALID,0,VALID,97.9456,VALID,0,VALID,19.7823,VALID,146,VALID,0,
2014-11-18, 01:12:04,VALID,917.11,VALID,0,VALID,97.9304,VALID,0,VALID,19.7823,VALID,146,VALID,0,
2014-11-18, 01:13:04,VALID,917.085,VALID,0,VALID,97.938,VALID,0,VALID,19.7823,VALID,146,VALID,0,
2014-11-18, 01:14:04,VALID,917.073,VALID,0,VALID,97.938,VALID,0,VALID,19.8018,VALID,149,VALID,0,
2014-11-18, 01:15:04,VALID,917.068,VALID,0,VALID,97.9228,VALID,0,VALID,19.8213,VALID,154,VALID,0,
2014-11-18, 01:16:04,VALID,917.077,VALID,0,VALID,97.9304,VALID,0,VALID,19.8213,VALID,145,VALID,0,
2014-11-18, 01:17:04,VALID,917.071,VALID,0,VALID,97.9152,VALID,0,VALID,19.8213,VALID,145,VALID,0,
2014-11-18, 01:18:04,VALID,917.092,VALID,0,VALID,97.938,VALID,0,VALID,19.8018,VALID,145,VALID,0,
2014-11-18, 01:19:04,VALID,917.05,VALID,0,VALID,97.9456,VALID,0,VALID,19.8003,VALID,145,VALID,0,
2014-11-18, 01:20:04,VALID,917.07,VALID,0,VALID,97.9304,VALID,0,VALID,19.8198,VALID,146,VALID,0,
2014-11-18, 01:21:04,VALID,917.051,VALID,0,VALID,97.938,VALID,0,VALID,19.8213,VALID,146,VALID,0,
2014-11-18, 01:22:04,VALID,917.035,VALID,0,VALID,97.9228,VALID,0,VALID,19.8408,VALID,146,VALID,0,
2014-11-18, 01:23:04,VALID,917.031,VALID,0,VALID,97.938,VALID,0,VALID,19.8198,VALID,146,VALID,0,
2014-11-18, 01:24:04,VALID,917.041,VALID,0,VALID,97.9304,VALID,0,VALID,19.8603,VALID,146,VALID,0,
2014-11-18, 01:25:04,VALID,917.048,VALID,0,VALID,97.9456,VALID,0,VALID,19.8603,VALID,146,VALID,0,
2014-11-18, 01:26:04,VALID,917.023,VALID,0,VALID,97.9228,VALID,0,VALID,19.8798,VALID,146,VALID,0,
2014-11-18, 01:27:04,VALID,917.037,VALID,0,VALID,97.9304,VALID,0,VALID,19.8993,VALID,146,VALID,0,
2014-11-18, 01:28:04,VALID,917.045,VALID,0,VALID,97.9152,VALID,0,VALID,19.8993,VALID,146,VALID,0,
2014-11-18, 01:29:04,VALID,917.034,VALID,0,VALID,97.9228,VALID,0,VALID,19.8798,VALID,146,VALID,0,
2014-11-18, 01:30:04,VALID,917.031,VALID,0,VALID,97.9152,VALID,0,VALID,19.8993,VALID,146,VALID,0,
2014-11-18, 01:31:04,VALID,917.014,VALID,0,VALID,97.9228,VALID,0,VALID,19.8993,VALID,146,VALID,0,
2014-11-18, 01:32:04,VALID,916.984,VALID,0,VALID,97.9228,VALID,0,VALID,19.8783,VALID,146,VALID,0,
2014-11-18, 01:33:04,VALID,916.98,VALID,0,VALID,97.9304,VALID,0,VALID,19.8783,VALID,147,VALID,0,
2014-11-18, 01:34:04,VALID,916.959,VALID,0,VALID,97.9304,VALID,0,VALID,19.8588,VALID,146,VALID,0,
2014-11-18, 01:35:04,VALID,916.959,VALID,0,VALID,97.9304,VALID,0,VALID,19.8798,VALID,146,VALID,0,
2014-11-18, 01:36:04,VALID,916.92,VALID,0,VALID,97.9152,VALID,0,VALID,19.8993,VALID,146,VALID,0,
2014-11-18, 01:37:04,VALID,916.903,VALID,0,VALID,97.938,VALID,0,VALID,19.8588,VALID,146,VALID,0,
2014-11-18, 01:38:04,VALID,916.883,VALID,0,VALID,97.9228,VALID,0,VALID,19.8798,VALID,147,VALID,0,
2014-11-18, 01:39:04,VALID,916.885,VALID,0,VALID,97.9533,VALID,0,VALID,19.8993,VALID,147,VALID,0,
2014-11-18, 01:40:04,VALID,916.877,VALID,0,VALID,97.9304,VALID,0,VALID,19.8798,VALID,146,VALID,0,
2014-11-18, 01:41:04,VALID,916.847,VALID,0,VALID,97.9304,VALID,0,VALID,19.8783,VALID,146,VALID,0,
2014-11-18, 01:42:04,VALID,916.835,VALID,0,VALID,97.9456,VALID,0,VALID,19.8798,VALID,146,VALID,0,
2014-11-18, 01:43:04,VALID,916.828,VALID,0,VALID,97.9456,VALID,0,VALID,19.8603,VALID,142,VALID,0,
2014-11-18, 01:44:04,VALID,916.823,VALID,0,VALID,97.9533,VALID,0,VALID,19.8603,VALID,142,VALID,0,
2014-11-18, 01:45:04,VALID,916.808,VALID,0,VALID,97.9304,VALID,0,VALID,19.8603,VALID,141,VALID,0,
2014-11-18, 01:46:04,VALID,916.795,VALID,0,VALID,97.9456,VALID,0,VALID,19.8603,VALID,142,VALID,0,
2014-11-18, 01:47:04,VALID,916.79,VALID,0,VALID,97.9228,VALID,0,VALID,19.8408,VALID,142,VALID,0,
2014-11-18, 01:48:04,VALID,916.755,VALID,0,VALID,97.9456,VALID,0,VALID,19.8603,VALID,142,VALID,0,
2014-11-18, 01:49:04,VALID,916.735,VALID,0,VALID,97.938,VALID,0,VALID,19.8408,VALID,142,VALID,0,
2014-11-18, 01:50:04,VALID,916.729,VALID,0,VALID,97.938,VALID,0,VALID,19.8603,VALID,141,VALID,0,
2014-11-18, 01:51:04,VALID,916.688,VALID,0,VALID,97.938,VALID,0,VALID,19.8798,VALID,141,VALID,0,
2014-11-18, 01:52:04,VALID,916.692,VALID,0,VALID,97.9304,VALID,0,VALID,19.8408,VALID,141,VALID,0,
2014-11-18, 01:53:04,VALID,916.688,VALID,0,VALID,97.9609,VALID,0,VALID,19.8393,VALID,147,VALID,0,
2014-11-18, 01:54:04,VALID,916.639,VALID,0,VALID,97.938,VALID,0,VALID,19.8603,VALID,150,VALID,0,
2014-11-18, 01:55:04,VALID,916.657,VALID,0,VALID,97.9304,VALID,0,VALID,19.8603,VALID,164,VALID,0,
2014-11-18, 01:56:04,VALID,916.621,VALID,0,VALID,97.9456,VALID,0,VALID,19.8393,VALID,164,VALID,0.171484,
2014-11-18, 01:57:04,VALID,916.6,VALID,0,VALID,97.9533,VALID,0,VALID,19.8198,VALID,166,VALID,0.841406,
2014-11-18, 01:58:04,VALID,916.576,VALID,0,VALID,97.938,VALID,0,VALID,19.8198,VALID,166,VALID,0.207031,
2014-11-18, 01:59:04,VALID,916.586,VALID,0,VALID,97.9304,VALID,0,VALID,19.8603,VALID,166,VALID,0.583594,
2014-11-18, 02:00:04,VALID,916.583,VALID,0,VALID,97.9533,VALID,0,VALID,19.8198,VALID,160,VALID,1.09141,
2014-11-18, 02:01:04,VALID,916.572,VALID,0.2,VALID,97.938,VALID,0,VALID,19.8603,VALID,157,VALID,0.806641,
2014-11-18, 02:02:04,VALID,916.565,VALID,0,VALID,97.938,VALID,0,VALID,19.8603,VALID,167,VALID,0.571875,
2014-11-18, 02:03:04,VALID,916.546,VALID,0,VALID,97.938,VALID,0,VALID,19.8603,VALID,172,VALID,0.839844,
2014-11-18, 02:04:04,VALID,916.539,VALID,0,VALID,97.9152,VALID,0,VALID,19.8393,VALID,162,VALID,1.00781,
2014-11-18, 02:05:04,VALID,916.538,VALID,0,VALID,97.938,VALID,0,VALID,19.8393,VALID,158,VALID,0.796484,
2014-11-18, 02:06:04,VALID,916.561,VALID,0,VALID,97.938,VALID,0,VALID,19.8603,VALID,143,VALID,0.821484,
2014-11-18, 02:07:04,VALID,916.542,VALID,0,VALID,97.9456,VALID,0,VALID,19.8393,VALID,133,VALID,0.601563,
2014-11-18, 02:08:04,VALID,916.537,VALID,0,VALID,97.938,VALID,0,VALID,19.8408,VALID,138,VALID,0.951172,
2014-11-18, 02:09:04,VALID,916.52,VALID,0,VALID,97.9609,VALID,0,VALID,19.8393,VALID,140,VALID,0.803516,
2014-11-18, 02:10:04,VALID,916.526,VALID,0,VALID,97.9533,VALID,0,VALID,19.8393,VALID,137,VALID,0.745703,
2014-11-18, 02:11:04,VALID,916.509,VALID,0,VALID,97.9609,VALID,0,VALID,19.8393,VALID,136,VALID,1.18789,
2014-11-18, 02:12:04,VALID,916.504,VALID,0,VALID,97.9533,VALID,0,VALID,19.8588,VALID,135,VALID,0.878516,
2014-11-18, 02:13:04,VALID,916.503,VALID,0,VALID,97.9685,VALID,0,VALID,19.8393,VALID,140,VALID,1.33477,
2014-11-18, 02:14:04,VALID,916.509,VALID,0,VALID,97.9609,VALID,0,VALID,19.8393,VALID,135,VALID,0.976563,
2014-11-18, 02:15:04,VALID,916.481,VALID,0,VALID,97.9609,VALID,0,VALID,19.8798,VALID,144,VALID,0.610156,
2014-11-18, 02:16:04,VALID,916.496,VALID,0,VALID,97.9685,VALID,0,VALID,19.8798,VALID,146,VALID,0.641016,
2014-11-18, 02:17:04,VALID,916.453,VALID,0,VALID,97.9609,VALID,0,VALID,19.8603,VALID,146,VALID,0.901172,
2014-11-18, 02:18:04,VALID,916.435,VALID,0,VALID,97.9533,VALID,0,VALID,19.8798,VALID,160,VALID,0.828516,
2014-11-18, 02:19:04,VALID,916.432,VALID,0,VALID,97.9456,VALID,0,VALID,19.8588,VALID,159,VALID,0.724219,
2014-11-18, 02:20:04,VALID,916.426,VALID,0,VALID,97.9609,VALID,0,VALID,19.8603,VALID,152,VALID,0.989844,
2014-11-18, 02:21:04,VALID,916.438,VALID,0,VALID,97.938,VALID,0,VALID,19.8993,VALID,160,VALID,0.924609,
2014-11-18, 02:22:04,VALID,916.395,VALID,0,VALID,97.9456,VALID,0,VALID,19.8798,VALID,157,VALID,1.01016,
2014-11-18, 02:23:04,VALID,916.417,VALID,0,VALID,97.9533,VALID,0,VALID,19.8588,VALID,159,VALID,0.975,
2014-11-18, 02:24:04,VALID,916.426,VALID,0,VALID,97.9456,VALID,0,VALID,19.8393,VALID,161,VALID,0.944531,
2014-11-18, 02:25:04,VALID,916.404,VALID,0,VALID,97.938,VALID,0,VALID,19.8588,VALID,171,VALID,0.883203,
2014-11-18, 02:26:04,VALID,916.437,VALID,0,VALID,97.9609,VALID,0,VALID,19.8393,VALID,166,VALID,1.11836,
2014-11-18, 02:27:04,VALID,916.444,VALID,0,VALID,97.9456,VALID,0,VALID,19.8198,VALID,166,VALID,0.943359,
2014-11-18, 02:28:04,VALID,916.427,VALID,0,VALID,97.9456,VALID,0,VALID,19.8393,VALID,174,VALID,1.06719,
2014-11-18, 02:29:04,VALID,916.42,VALID,0,VALID,97.9228,VALID,0,VALID,19.8408,VALID,164,VALID,0.775,
2014-11-18, 02:30:04,VALID,916.409,VALID,0,VALID,97.938,VALID,0,VALID,19.8603,VALID,161,VALID,0.792969,
2014-11-18, 02:31:04,VALID,916.434,VALID,0,VALID,97.9228,VALID,0,VALID,19.8393,VALID,160,VALID,0.422266,
2014-11-18, 02:32:04,VALID,916.443,VALID,0,VALID,97.938,VALID,0,VALID,19.8393,VALID,160,VALID,0.549219,
2014-11-18, 02:33:04,VALID,916.425,VALID,0,VALID,97.938,VALID,0,VALID,19.8198,VALID,168,VALID,0.674219,
2014-11-18, 02:34:04,VALID,916.422,VALID,0,VALID,97.9304,VALID,0,VALID,19.8603,VALID,166,VALID,0.811719,
2014-11-18, 02:35:04,VALID,916.442,VALID,0,VALID,97.9456,VALID,0,VALID,19.8408,VALID,141,VALID,1.2793,
2014-11-18, 02:36:04,VALID,916.43,VALID,0,VALID,97.9304,VALID,0,VALID,19.8408,VALID,145,VALID,0.0414063,
2014-11-18, 02:37:04,VALID,916.419,VALID,0,VALID,97.9304,VALID,0,VALID,19.8213,VALID,146,VALID,0.201172,
2014-11-18, 02:38:04,VALID,916.435,VALID,0,VALID,97.938,VALID,0,VALID,19.8213,VALID,135,VALID,1.10547,
2014-11-18, 02:39:04,VALID,916.424,VALID,0,VALID,97.9228,VALID,0,VALID,19.8003,VALID,151,VALID,0.989453,
2014-11-18, 02:40:04,VALID,916.426,VALID,0,VALID,97.938,VALID,0,VALID,19.8213,VALID,144,VALID,1.09102,
2014-11-18, 02:41:04,VALID,916.415,VALID,0.2,VALID,97.9228,VALID,0,VALID,19.8213,VALID,145,VALID,0.787891,
2014-11-18, 02:42:04,VALID,916.402,VALID,0,VALID,97.938,VALID,0,VALID,19.8198,VALID,136,VALID,0.459375,
2014-11-18, 02:43:04,VALID,916.395,VALID,0,VALID,97.938,VALID,0,VALID,19.8408,VALID,137,VALID,0.497656,
2014-11-18, 02:44:04,VALID,916.418,VALID,0,VALID,97.9152,VALID,0,VALID,19.8213,VALID,144,VALID,0.617578,
2014-11-18, 02:45:04,VALID,916.403,VALID,0,VALID,97.9152,VALID,0,VALID,19.8003,VALID,135,VALID,0.705078,
2014-11-18, 02:46:04,VALID,916.379,VALID,0,VALID,97.9152,VALID,0,VALID,19.8213,VALID,153,VALID,0.651563,
2014-11-18, 02:47:04,VALID,916.379,VALID,0,VALID,97.9304,VALID,0,VALID,19.8213,VALID,153,VALID,0.20625,
2014-11-18, 02:48:04,VALID,916.389,VALID,0,VALID,97.9304,VALID,0,VALID,19.8213,VALID,135,VALID,0.601563,
2014-11-18, 02:49:04,VALID,916.389,VALID,0,VALID,97.9456,VALID,0,VALID,19.8018,VALID,163,VALID,1.30586,
2014-11-18, 02:50:04,VALID,916.363,VALID,0,VALID,97.938,VALID,0,VALID,19.8213,VALID,157,VALID,0.462891,
2014-11-18, 02:51:04,VALID,916.394,VALID,0,VALID,97.9304,VALID,0,VALID,19.8003,VALID,157,VALID,0,
2014-11-18, 02:52:04,VALID,916.388,VALID,0,VALID,97.9228,VALID,0,VALID,19.7808,VALID,127,VALID,0.8375,
2014-11-18, 02:53:04,VALID,916.374,VALID,0,VALID,97.9152,VALID,0,VALID,19.8018,VALID,131,VALID,0.897656,
2014-11-18, 02:54:04,VALID,916.345,VALID,0,VALID,97.9075,VALID,0,VALID,19.8018,VALID,136,VALID,0.528516,
2014-11-18, 02:55:04,VALID,916.373,VALID,0,VALID,97.8999,VALID,0,VALID,19.7808,VALID,133,VALID,1.09648,
2014-11-18, 02:56:04,VALID,916.325,VALID,0,VALID,97.9152,VALID,0,VALID,19.8213,VALID,125,VALID,1.00234,
2014-11-18, 02:57:04,VALID,916.319,VALID,0,VALID,97.9075,VALID,0,VALID,19.8003,VALID,137,VALID,0.672656,
2014-11-18, 02:58:04,VALID,916.321,VALID,0,VALID,97.8923,VALID,0,VALID,19.8018,VALID,145,VALID,0.742578,
2014-11-18, 02:59:04,VALID,916.303,VALID,0,VALID,97.8999,VALID,0,VALID,19.8018,VALID,129,VALID,0.725,
2014-11-18, 03:00:04,VALID,916.348,VALID,0,VALID,97.8923,VALID,0,VALID,19.8018,VALID,120,VALID,0.796484,
2014-11-18, 03:01:04,VALID,916.317,VALID,0,VALID,97.8847,VALID,0,VALID,19.8018,VALID,120,VALID,0.507031,
2014-11-18, 03:02:04,VALID,916.34,VALID,0,VALID,97.8999,VALID,0,VALID,19.8213,VALID,117,VALID,0.803125,
2014-11-18, 03:03:04,VALID,916.314,VALID,0,VALID,97.8923,VALID,0,VALID,19.8018,VALID,116,VALID,0.86875,
2014-11-18, 03:04:04,VALID,916.299,VALID,0,VALID,97.8923,VALID,0,VALID,19.7823,VALID,122,VALID,1.25781,
2014-11-18, 03:05:04,VALID,916.281,VALID,0,VALID,97.8923,VALID,0,VALID,19.7613,VALID,118,VALID,0.755859,
2014-11-18, 03:06:04,VALID,916.28,VALID,0,VALID,97.8923,VALID,0,VALID,19.7823,VALID,125,VALID,1.13203,
2014-11-18, 03:07:04,VALID,916.263,VALID,0,VALID,97.877,VALID,0,VALID,19.7808,VALID,111,VALID,1.09258,
2014-11-18, 03:08:04,VALID,916.253,VALID,0,VALID,97.877,VALID,0,VALID,19.7823,VALID,111,VALID,1.475,
2014-11-18, 03:09:04,VALID,916.248,VALID,0,VALID,97.877,VALID,0,VALID,19.7823,VALID,134,VALID,1.42969,
2014-11-18, 03:10:04,VALID,916.228,VALID,0,VALID,97.877,VALID,0,VALID,19.8213,VALID,132,VALID,0.875391,
2014-11-18, 03:11:04,VALID,916.22,VALID,0,VALID,97.8694,VALID,0,VALID,19.7808,VALID,130,VALID,1.09492,
2014-11-18, 03:12:04,VALID,916.207,VALID,0,VALID,97.8694,VALID,0,VALID,19.7808,VALID,134,VALID,1.31523,
2014-11-18, 03:13:04,VALID,916.199,VALID,0,VALID,97.8694,VALID,0,VALID,19.8018,VALID,107,VALID,0.877734,
2014-11-18, 07:01:04,VALID,916.875,VALID,0,VALID,97.7093,VALID,46.3071,VALID,19.6053,VALID,168,VALID,0.526172,
2014-11-18, 07:02:04,VALID,916.882,VALID,0,VALID,97.7322,VALID,48.1336,VALID,19.5843,VALID,167,VALID,1.5457,
2014-11-18, 07:03:04,VALID,916.893,VALID,0,VALID,97.7246,VALID,49.8527,VALID,19.6248,VALID,178,VALID,0.833203,
2014-11-18, 07:04:04,VALID,916.911,VALID,0,VALID,97.7398,VALID,51.6792,VALID,19.6458,VALID,161,VALID,1.0543,
2014-11-18, 07:05:04,VALID,916.954,VALID,0,VALID,97.7398,VALID,53.7206,VALID,19.6638,VALID,163,VALID,1.13398,
2014-11-18, 07:06:04,VALID,916.941,VALID,0,VALID,97.7169,VALID,55.9768,VALID,19.7238,VALID,183,VALID,0.666406,
2014-11-18, 07:07:04,VALID,916.971,VALID,0,VALID,97.7246,VALID,58.2331,VALID,19.7418,VALID,171,VALID,1.05508,
2014-11-18, 07:08:04,VALID,916.985,VALID,0,VALID,97.7322,VALID,60.7043,VALID,19.7628,VALID,161,VALID,0.948828,
2014-11-18, 07:09:04,VALID,916.999,VALID,0,VALID,97.7017,VALID,63.1754,VALID,19.7823,VALID,173,VALID,1.13984,
2014-11-18, 07:10:04,VALID,917.005,VALID,0,VALID,97.7017,VALID,65.5391,VALID,19.7823,VALID,182,VALID,0.854688,
2014-11-18, 07:11:04,VALID,917.032,VALID,0,VALID,97.7017,VALID,68.0102,VALID,19.8198,VALID,171,VALID,0.505859,
2014-11-18, 07:12:04,VALID,917.047,VALID,0,VALID,97.6865,VALID,70.2665,VALID,19.8603,VALID,183,VALID,1.2543,
2014-11-18, 07:13:04,VALID,917.029,VALID,0,VALID,97.6941,VALID,73.7046,VALID,19.8798,VALID,178,VALID,1.32852,
2014-11-18, 07:14:04,VALID,917.063,VALID,0,VALID,97.656,VALID,77.4651,VALID,19.8783,VALID,163,VALID,0.797266,
2014-11-18, 07:15:04,VALID,917.062,VALID,0,VALID,97.6636,VALID,80.6883,VALID,19.8993,VALID,181,VALID,1.20391,
2014-11-18, 07:16:04,VALID,917.095,VALID,0,VALID,97.6178,VALID,84.5562,VALID,19.9383,VALID,167,VALID,0.567969,
2014-11-18, 07:17:04,VALID,917.098,VALID,0,VALID,97.6178,VALID,88.9613,VALID,19.9578,VALID,164,VALID,0.501562,
2014-11-18, 07:18:04,VALID,917.128,VALID,0,VALID,97.6026,VALID,90.8952,VALID,19.9953,VALID,163,VALID,1.21992,
2014-11-18, 07:19:04,VALID,917.15,VALID,0,VALID,97.5873,VALID,92.7217,VALID,20.0148,VALID,152,VALID,0.925781,
2014-11-18, 07:20:04,VALID,917.195,VALID,0,VALID,97.5569,VALID,94.978,VALID,20.0148,VALID,143,VALID,0.992969,
2014-11-18, 07:21:04,VALID,917.239,VALID,0,VALID,97.5492,VALID,94.6557,VALID,20.0749,VALID,162,VALID,0.726953,
2014-11-18, 07:22:04,VALID,917.258,VALID,0,VALID,97.5035,VALID,93.9036,VALID,20.0733,VALID,161,VALID,0.486719,
2014-11-18, 07:23:04,VALID,917.289,VALID,0,VALID,97.4654,VALID,91.2175,VALID,20.0733,VALID,174,VALID,0.346094,
2014-11-18, 07:24:04,VALID,917.316,VALID,0,VALID,97.4349,VALID,89.1762,VALID,20.1123,VALID,173,VALID,0.890234,
2014-11-18, 07:25:04,VALID,917.376,VALID,0,VALID,97.3891,VALID,86.705,VALID,20.1529,VALID,157,VALID,0.430078,
2014-11-18, 07:26:04,VALID,917.358,VALID,0,VALID,97.3434,VALID,86.0604,VALID,20.1708,VALID,161,VALID,0.482422,
2014-11-18, 07:27:04,VALID,917.39,VALID,0,VALID,97.2672,VALID,85.738,VALID,20.1903,VALID,173,VALID,0.576953,
2014-11-18, 07:28:04,VALID,917.43,VALID,0,VALID,97.229,VALID,85.738,VALID,20.2098,VALID,180,VALID,0.566797,
2014-11-18, 07:29:04,VALID,917.438,VALID,0,VALID,97.1528,VALID,85.9529,VALID,20.2098,VALID,181,VALID,0.894922,
2014-11-18, 07:30:04,VALID,917.462,VALID,0,VALID,97.1147,VALID,86.5976,VALID,20.2699,VALID,181,VALID,0.360156,
2014-11-18, 07:31:04,VALID,917.488,VALID,0,VALID,97.0537,VALID,87.4571,VALID,20.2699,VALID,178,VALID,0.414844,
2014-11-18, 07:32:04,VALID,917.499,VALID,0,VALID,97.0156,VALID,88.5315,VALID,20.3089,VALID,176,VALID,0.910156,
2014-11-18, 07:33:04,VALID,917.529,VALID,0,VALID,96.9241,VALID,89.9282,VALID,20.2879,VALID,166,VALID,0.803125,
2014-11-18, 07:34:04,VALID,917.53,VALID,0,VALID,96.8326,VALID,91.5399,VALID,20.2684,VALID,186,VALID,1.21094,
2014-11-18, 07:35:04,VALID,917.582,VALID,0,VALID,96.7259,VALID,93.1515,VALID,20.2489,VALID,199,VALID,1.24219,
2014-11-18, 07:36:04,VALID,917.612,VALID,0,VALID,96.6725,VALID,94.8705,VALID,20.3074,VALID,194,VALID,0.4125,